Regional Weather Roundup
Issued by NWS

Home | Current Version | Previous Version | Graphics & Text | Print | Product List | Glossary On
Versions: 1 2 3 4 5 6 7 8 9 10 11 12 13 14 15 16 17 18 19 20 21 22 23 24 25 26 27 28 29 30 31 32 33 34 35 36 37 38 39 40 41 42 43 44 45 46 47 48 49 50
000
ASUS43 KBIS 240702
RWRND

NORTH DAKOTA REGIONAL WEATHER ROUNDUP
NATIONAL WEATHER SERVICE BISMARCK ND
100 AM CST TUE JAN 24 2017

NOTE: "FAIR" INDICATES FEW OR NO CLOUDS BELOW 12,000 FEET WITH NO
SIGNIFICANT WEATHER AND/OR OBSTRUCTIONS TO VISIBILITY.


NDZ001>003-009>011-017-240800-
NORTHWEST NORTH DAKOTA

CITY           SKY/WX    TMP DP  RH WIND       PRES   REMARKS
WILLISTON      CLOUDY    22  19  89 W7        29.84S WCI  13
MINOT          CLOUDY    23  18  81 SW12      29.81S WCI  12
$$

NDZ018>021-031>035-040>046-240800-
SOUTHWEST NORTH DAKOTA

CITY           SKY/WX    TMP DP  RH WIND       PRES   REMARKS
BISMARCK       CLOUDY    29  24  82 NW7       29.84S
DICKINSON      LGT SNOW  22  20  92 N12       29.78R FOG     WCI  10
GARRISON         N/A     21  17  84 W8        29.82S WCI  11
HETTINGER ARPT FOG       21  20  96 N5        29.79S VSB 1/2 WCI  15
$$

NDZ004>008-012>016-024-026-027-054-240800-
NORTHEAST NORTH DAKOTA

CITY           SKY/WX    TMP DP  RH WIND       PRES   REMARKS
GRAND FORKS    CLOUDY    26  19  74 W9        29.85R WCI  17
GRND FRKS AFB  CLOUDY    24  19  80 W10       29.85R WCI  14
DEVILS LAKE    CLOUDY    22  19  89 W14       29.81S WCI   9
$$

NDZ022-023-025-028>030-036>039-047>053-240800-
SOUTHEAST NORTH DAKOTA

CITY           SKY/WX    TMP DP  RH WIND       PRES   REMARKS
FARGO          CLOUDY    33  25  72 W6        29.86S
JAMESTOWN      CLOUDY    28  24  85 W5        29.81F
$$





USA.gov is the U.S. government's official web portal to all federal, state and local government web resources and services.